User: anonymous   Login
Location: Unspecified
(0.0000°N, 0.0000°E)
Time: 05:45:20
(UTC+00:00)
Language:

STARLINK-35911 - Orbit

View from above orbital plane
View from above orbital plane
View from above satellite
View from above satellite

Ground track
Ground track

The orbit is defined by the following mean orbital elements,

1 70007U          26065.44701389 +.00000000 +00000-0 -21669-2 0 00009
2 70007  53.1602  78.8803 0000630  78.8877 102.2740 16.02090006    01
Epoch (UTC): 06 March 2026 10:43:42
Eccentricity: 0.0000630
inclination: 53.1602°
perigee height: 268 km
apogee height: 269 km
right ascension of ascending node: 78.8803°
argument of perigee: 78.8877°
revolutions per day: 16.02090006
mean anomaly at epoch: 102.2740°

The dashed part of the orbit path shows where the satellite is in the earth's shadow,  

DLR